[[{"header":{"parameterUnit":"m.s-1","parameterCategory":1,"la1":30.2992,"la2":30.254,"lo1":-89.0895,"lo2":-89.0443,"dy":0.0025,"dx":0.0025,"nx":19,"ny":19,"refTime":"2026-04-24T09:00:00:Z","depth":0,"parameterNumber":2,"parameterNumberName":"U-component_of_WINDS"},"data":[0,0,0,-1.8785,-1.8785,-1.8776,-1.8775,-1.8776,-1.8776,0,0,0,0,0,0,0,0,0,0,0,-1.8793,-1.8793,-1.8785,-1.8785,-1.8776,-1.8775,-1.8776,-1.8776,0,0,0,0,0,0,0,0,0,0,0,-1.8793,-1.8793,-1.8793,-1.8785,-1.8776,-1.8775,-1.8776,-1.8779,0,0,0,0,0,0,0,0,0,0,-1.8786,-1.8798,-1.8793,-1.8793,-1.8785,-1.8776,-1.8775,-1.8779,-1.8779,-1.8784,0,-1.8789,0,-1.8783,-1.8776,-1.8776,0,0,0,-1.8781,-1.8798,-1.8791,-1.8793,-1.8785,-1.8776,-1.8779,-1.8778,-1.8778,-1.8784,-1.8789,-1.8789,-1.8783,-1.8776,-1.8776,-1.882,-1.882,0,0,-1.8782,-1.8794,-1.8791,-1.8791,-1.8791,-1.8779,-1.8778,-1.8778,-1.8785,-1.8789,-1.8789,-1.8783,-1.8776,-1.8777,-1.8819,-1.882,0,0,0,-1.8786,-1.8795,-1.8787,-1.8791,-1.8789,-1.8779,-1.8778,-1.8785,-1.8782,-1.8789,-1.8783,-1.8776,-1.8777,-1.8819,-1.882,-1.885,0,0,0,-1.8786,-1.8797,-1.8788,-1.8796,-1.8789,-1.8786,-1.8785,-1.8782,-1.8781,-1.8783,-1.8776,-1.8777,-1.8819,-1.8819,-1.8848,-1.8862,0,0,0,-1.8792,-1.8798,-1.8798,-1.8796,-1.8793,-1.8786,-1.8782,-1.8781,-1.8778,-1.8776,-1.8777,-1.8818,-1.8819,-1.8846,-1.8859,-1.8877,0,0,0,-1.8802,-1.8825,-1.8799,-1.8823,-1.8793,-1.8805,-1.8782,-1.8791,-1.8793,-1.8777,-1.8819,-1.882,-1.8846,-1.8857,-1.8875,-1.8893,-1.8902,0,0,-1.8838,-1.883,-1.8843,-1.8819,-1.8839,-1.8805,-1.883,-1.8821,-1.881,-1.8818,-1.8819,-1.8849,-1.8859,-1.8877,-1.8949,-1.8956,0,0,0,-1.8859,-1.8868,-1.8871,-1.8874,-1.8867,-1.8863,-1.8849,-1.8846,-1.8852,-1.8816,-1.886,-1.8866,-1.8876,-1.8884,-1.889,-1.8898,-1.8824,-1.8824,-1.8824,-1.8927,-1.8912,-1.8933,-1.8917,-1.8921,-1.8907,-1.8909,-1.8903,-1.8886,-1.8897,-1.8899,-1.8944,-1.8955,-1.8959,-1.8967,-1.8908,-1.8908,-1.8908,-1.8908,-1.8978,-1.8989,-1.8968,-1.8981,-1.8966,-1.8977,-1.8966,-1.8954,-1.8963,-1.8941,-1.8949,-1.8926,-1.8967,-1.8974,-1.891,-1.891,-1.891,-1.891,-1.8909,-1.902,-1.9023,-1.9019,-1.9023,-1.9029,-1.9013,-1.9023,-1.9009,-1.8996,-1.9004,-1.9005,-1.9005,-1.9002,-1.9006,-1.9006,-1.9006,-1.9006,-1.9007,-1.9007,-1.9065,-1.906,-1.9069,-1.9066,-1.9067,-1.9067,-1.9056,-1.9057,-1.9055,-1.9044,-1.9044,-1.9027,-1.8974,-1.8961,-1.9009,-1.9009,-1.9008,-1.9008,-1.9008,-1.9121,-1.9107,-1.9121,-1.9122,-1.9119,-1.9126,-1.9109,-1.9113,-1.9112,-1.9118,-1.9101,-1.9064,-1.9054,-1.9049,-1.9038,-1.9104,-1.9104,-1.9104,-1.9104,-1.9156,-1.915,-1.9163,-1.9166,-1.9168,-1.9154,-1.9174,-1.9167,-1.9157,-1.9156,-1.9145,-1.9129,-1.9125,-1.9118,-1.9112,-1.9101,-1.9181,-1.9181,-1.9181,-1.919,-1.9184,-1.9201,-1.9191,-1.9188,-1.9186,-1.9204,-1.9211,-1.9197,-1.9184,-1.9155,-1.9152,-1.9127,-1.9119,-1.9103,-1.9094,-1.9074,0,0]},{"header":{"parameterUnit":"m.s-1","parameterCategory":1,"la1":30.2992,"la2":30.254,"lo1":-89.0895,"lo2":-89.0443,"dy":0.0025,"dx":0.0025,"nx":19,"ny":19,"refTime":"2026-04-24T09:00:00:Z","depth":0,"parameterNumber":3,"parameterNumberName":"V-component_of_WINDS"},"data":[0,0,0,4.0725,4.0725,4.0702,4.0702,4.0673,4.0673,0,0,0,0,0,0,0,0,0,0,0,4.0734,4.0734,4.0725,4.0725,4.0702,4.0702,4.0673,4.0673,0,0,0,0,0,0,0,0,0,0,0,4.0734,4.0734,4.0734,4.0725,4.0702,4.0702,4.0673,4.069,0,0,0,0,0,0,0,0,0,0,4.0712,4.0723,4.0734,4.0734,4.0725,4.0702,4.0702,4.0691,4.0689,4.0685,0,4.0683,0,4.0678,4.0671,4.0671,0,0,0,4.0723,4.0725,4.0717,4.0734,4.0724,4.0702,4.0712,4.069,4.0688,4.0683,4.0682,4.0681,4.0677,4.0671,4.0671,4.0656,4.0656,0,0,4.0724,4.0731,4.0718,4.0715,4.072,4.0712,4.0711,4.0689,4.0689,4.0682,4.0681,4.0677,4.0671,4.0671,4.0656,4.0656,0,0,0,4.0729,4.0732,4.0724,4.0717,4.0712,4.0712,4.071,4.0689,4.0686,4.068,4.0676,4.0671,4.0671,4.0656,4.0656,4.0664,0,0,0,4.073,4.0735,4.0725,4.0729,4.0713,4.0701,4.0712,4.0688,4.0685,4.0676,4.0671,4.067,4.0656,4.0656,4.0663,4.0666,0,0,0,4.0735,4.0736,4.0733,4.073,4.072,4.0701,4.0697,4.0687,4.0683,4.0671,4.067,4.0656,4.0656,4.0663,4.0666,4.0664,0,0,0,4.0743,4.0741,4.0733,4.0729,4.072,4.0707,4.0697,4.0686,4.0677,4.0671,4.0656,4.0656,4.0663,4.0666,4.0664,4.0664,4.0665,0,0,4.0744,4.0741,4.0738,4.0731,4.0721,4.071,4.07,4.0684,4.0676,4.0663,4.0662,4.0663,4.0666,4.0664,4.0667,4.0667,0,0,0,4.0741,4.0739,4.0734,4.0726,4.0715,4.0705,4.0691,4.0685,4.0673,4.0671,4.0662,4.0663,4.0662,4.0662,4.0662,4.066,4.0656,4.0656,4.0656,4.0753,4.0743,4.0737,4.0724,4.0716,4.0701,4.0694,4.0683,4.0675,4.0673,4.0669,4.0672,4.0672,4.0672,4.067,4.0668,4.0668,4.0668,4.0668,4.0754,4.0749,4.0739,4.0729,4.0718,4.071,4.0694,4.0688,4.0678,4.0674,4.0672,4.0669,4.0673,4.0671,4.0669,4.0668,4.0668,4.0668,4.0668,4.0761,4.0757,4.075,4.0737,4.0728,4.0714,4.0705,4.0695,4.0685,4.0683,4.0678,4.0678,4.0676,4.0681,4.0681,4.0681,4.0681,4.0681,4.0681,4.0771,4.0763,4.0757,4.0744,4.0737,4.0727,4.071,4.0703,4.0692,4.0685,4.0685,4.0677,4.0676,4.0676,4.0682,4.0681,4.0681,4.0681,4.0681,4.0777,4.0774,4.0764,4.0758,4.0741,4.0732,4.0719,4.0704,4.0696,4.0692,4.0683,4.0684,4.068,4.068,4.0679,4.0686,4.0686,4.0686,4.0686,4.0783,4.078,4.0768,4.0757,4.0746,4.0733,4.0721,4.0707,4.0693,4.0687,4.0684,4.0683,4.0683,4.0679,4.0679,4.0678,4.0684,4.0684,4.0684,4.0786,4.0781,4.0774,4.076,4.0746,4.0734,4.0722,4.0709,4.0692,4.0684,4.0682,4.0682,4.068,4.068,4.0673,4.0673,4.0672,0,0]}]]